Overview Statistics Trail Chart Weather Telemetry Raw packets
 

This is the latest recevied weather packets stored in our database for station/object PU5BHV. If no packets are shown the sender has not sent any weather packets the latest 10 day(s).

<< 46 47 48 49 50 51 52 >>
Time Temp. Humidity Pressure Rain* Wind** Luminosity Snow
1777306431 28.89° C 47% 1012.9 hPa 0 mm - 603 W/m² -
1777306131 28.89° C 47% 1013.1 hPa 0 mm - 627 W/m² -
1777305827 28.89° C 47% 1013.1 hPa 0 mm - 604 W/m² -
1777305523 28.89° C 47% 1013.2 hPa 0 mm - 631 W/m² -
1777305218 28.33° C 48% 1013.2 hPa 0 mm - 628 W/m² -
1777304913 28.89° C 47% 1013.3 hPa 0 mm - 590 W/m² -
1777304610 28.33° C 50% 1013.3 hPa 0 mm - 596 W/m² -
1777304307 28.89° C 49% 1013.4 hPa 0 mm - 592 W/m² -
1777304004 28.33° C 48% 1013.5 hPa 0 mm - 568 W/m² -
1777303701 28.33° C 48% 1013.8 hPa 0 mm - 614 W/m² -
1777303398 28.33° C 47% 1013.8 hPa 0 mm - 671 W/m² -
1777303096 28.33° C 49% 1013.5 hPa 0 mm - 656 W/m² -
1777302794 28.33° C 49% 1013.7 hPa 0 mm - 637 W/m² -
1777302491 28.33° C 51% 1013.7 hPa 0 mm - 660 W/m² -
1777302189 27.78° C 50% 1013.6 hPa 0 mm - 666 W/m² -
1777301886 28.33° C 50% 1013.9 hPa 0 mm - 640 W/m² -
1777301583 27.78° C 56% 1013.8 hPa 0 mm - 660 W/m² -
1777301280 27.78° C 54% 1013.8 hPa 0 mm - 658 W/m² -
1777300977 27.78° C 54% 1013.8 hPa 0 mm - 603 W/m² -
1777300675 27.78° C 55% 1013.9 hPa 0 mm - 637 W/m² -
1777300372 27.78° C 57% 1013.9 hPa 0 mm - 623 W/m² -
1777300069 27.78° C 55% 1014 hPa 0 mm - 607 W/m² -
1777299766 27.22° C 56% 1014.4 hPa 0 mm - 662 W/m² -
1777299463 27.22° C 55% 1014.3 hPa 0 mm - 600 W/m² -
1777299161 27.22° C 55% 1014.2 hPa 0 mm - 622 W/m² -

* Rain latest hour (hover to see other rain measurements)
** Current wind speed in m/s (hover to see current wind gust speed)